EW8665 Weather Reports


time (UTC)temp
C
wind
direction
speed
KPH
gust
KPH
rain 1hr
cm
rain 24hr
cm
rain mn
cm
humidity
%
barometer
mb
20260904013505 17 65 6.4 11.3 0.00 0.00 0.00 66 1023.2
20260904013004 17 62 6.4 11.3 0.00 0.00 0.00 66 1023.0
20260904012505 17 62 6.4 8.0 0.00 0.00 0.00 67 1023.2
20260904011506 17 57 4.8 8.0 0.00 0.00 0.00 67 1023.4
20260904011005 17 53 4.8 8.0 0.00 0.00 0.00 67 1023.4
20260904010505 17 48 4.8 8.0 0.00 0.00 0.00 67 1023.4
20260904005505 17 45 6.4 11.3 0.00 0.00 0.00 66 1023.5
20260904005005 17 43 6.4 12.9 0.00 0.00 0.00 67 1023.5
20260904004006 17 43 4.8 11.3 0.00 0.00 0.00 67 1023.6
20260904003505 17 46 4.8 11.3 0.00 0.00 0.00 68 1023.8
20260904001505 18 75 4.8 8.0 0.00 0.00 0.00 67 1024.0
20260904001005 18 81 3.2 8.0 0.00 0.00 0.00 67 1023.8
20260904000504 18 89 3.2 6.4 0.00 0.00 0.00 67 1023.9
20260904000005 18 84 3.2 6.4 0.00 0.00 0.00 66 1024.0
20260903235505 18 85 3.2 6.4 0.00 0.00 0.00 66 1023.8
20260903235006 18 83 4.8 12.9 0.00 0.00 0.00 66 1023.8
20260903234505 18 81 4.8 12.9 0.00 0.00 0.00 65 1023.7
20260903234005 18 76 4.8 8.0 0.00 0.00 0.00 66 1023.8
20260903233505 18 69 3.2 8.0 0.00 0.00 0.00 66 1024.0
20260903233004 18 67 4.8 9.7 0.00 0.00 0.00 66 1023.8
20260903232505 18 63 4.8 9.7 0.00 0.00 0.00 66 1023.8
20260903232005 18 63 4.8 8.0 0.00 0.00 0.00 65 1024.1
20260903231505 18 59 3.2 8.0 0.00 0.00 0.00 65 1024.1
20260903230004 18 67 4.8 6.4 0.00 0.00 0.00 66 1024.2
20260903225505 18 69 4.8 9.7 0.00 0.00 0.00 65 1024.2
20260903225006 18 66 4.8 11.3 0.00 0.00 0.00 65 1024.2
20260903224505 18 65 3.2 11.3 0.00 0.00 0.00 64 1024.3
20260903224004 18 65 6.4 11.3 0.00 0.00 0.00 65 1024.3
20260903223505 18 64 6.4 11.3 0.00 0.00 0.00 64 1024.1
20260903223005 19 60 4.8 8.0 0.00 0.00 0.00 64 1024.4
20260903222505 19 63 4.8 11.3 0.00 0.00 0.00 64 1024.4
20260903221505 19 64 6.4 11.3 0.00 0.00 0.00 64 1024.3
20260903221004 19 59 4.8 9.7 0.00 0.00 0.00 64 1024.3
20260903220505 19 60 3.2 8.0 0.00 0.00 0.00 64 1024.5
20260903220005 19 55 4.8 8.0 0.00 0.00 0.00 64 1024.5
20260903215006 19 47 4.8 8.0 0.00 0.00 0.00 64 1024.3
20260903214505 19 43 4.8 8.0 0.00 0.00 0.00 64 1024.6
20260903214005 19 44 6.4 9.7 0.00 0.00 0.00 64 1024.3
20260903213505 19 42 4.8 9.7 0.00 0.00 0.00 64 1024.5
20260903213005 19 43 4.8 11.3 0.00 0.00 0.00 63 1024.7
20260903212504 19 40 6.4 11.3 0.00 0.00 0.00 64 1024.6
20260903212005 20 42 6.4 11.3 0.00 0.00 0.00 63 1024.6
20260903211504 20 47 6.4 11.3 0.00 0.00 0.00 63 1024.4
20260903211005 20 47 6.4 11.3 0.00 0.00 0.00 63 1024.7
20260903210506 20 58 4.8 9.7 0.00 0.00 0.00 63 1024.6
20260903210005 20 57 4.8 9.7 0.00 0.00 0.00 63 1024.7
20260903205504 20 64 4.8 8.0 0.00 0.00 0.00 63 1024.8
20260903205005 20 63 6.4 12.9 0.00 0.00 0.00 63 1024.6
20260903204504 20 61 6.4 12.9 0.00 0.00 0.00 63 1024.6
20260903204006 20 61 6.4 9.7 0.00 0.00 0.00 63 1024.6
20260903203505 20 53 4.8 9.7 0.00 0.00 0.00 63 1024.6
20260903203006 20 59 4.8 9.7 0.00 0.00 0.00 63 1024.6
20260903202504 20 59 4.8 9.7 0.00 0.00 0.00 63 1024.7
20260903202005 20 62 4.8 8.0 0.00 0.00 0.00 63 1024.8
20260903201005 20 58 4.8 9.7 0.00 0.00 0.00 63 1024.6
20260903200505 20 55 4.8 9.7 0.00 0.00 0.00 63 1024.6
20260903200005 20 52 4.8 9.7 0.00 0.00 0.00 63 1024.7
20260903195505 20 50 4.8 11.3 0.00 0.00 0.00 63 1024.5
20260903195005 20 52 6.4 11.3 0.00 0.00 0.00 63 1024.5
20260903194505 20 54 6.4 11.3 0.00 0.00 0.00 62 1024.7
20260903194005 20 52 4.8 8.0 0.00 0.00 0.00 62 1024.6
20260903193004 20 46 6.4 11.3 0.00 0.00 0.00 61 1024.5
20260903192505 20 42 6.4 11.3 0.00 0.00 0.00 62 1024.6
20260903192004 20 45 4.8 11.3 0.00 0.00 0.00 63 1024.6
20260903190504 21 45 3.2 8.0 0.00 0.00 0.00 63 1024.5
20260903185504 21 49 4.8 9.7 0.00 0.00 0.00 62 1024.5
20260903184505 21 45 6.4 11.3 0.00 0.00 0.00 60 1024.3
20260903184005 22 42 6.4 9.7 0.00 0.00 0.00 59 1024.2
20260903183004 22 52 4.8 9.7 0.00 0.00 0.00 59 1024.1
20260903182004 22 61 3.2 6.4 0.00 0.00 0.00 55 1024.2
20260903181505 22 64 4.8 6.4 0.00 0.00 0.00 54 1024.0
20260903180505 23 169 1.6 4.8 0.00 0.00 0.00 53 1023.9
20260903180005 23 201 1.6 6.4 0.00 0.00 0.00 52 1023.8
20260903175505 24 228 1.6 6.4 0.00 0.00 0.00 50 1023.8
20260903175005 24 229 1.6 6.4 0.00 0.00 0.00 49 1023.7
20260903174005 25 229 1.6 6.4 0.00 0.00 0.00 46 1023.8
20260903173504 25 228 4.8 9.7 0.00 0.00 0.00 46 1023.7
20260903173005 25 226 6.4 12.9 0.00 0.00 0.00 46 1023.6
20260903172505 25 223 6.4 12.9 0.00 0.00 0.00 45 1023.5
20260903172004 25 221 6.4 12.9 0.00 0.00 0.00 45 1023.4
20260903171505 25 223 6.4 12.9 0.00 0.00 0.00 45 1023.5
20260903170505 26 226 6.4 16.1 0.00 0.00 0.00 45 1023.6
20260903165505 26 225 6.4 12.9 0.00 0.00 0.00 45 1023.7
20260903165006 26 227 6.4 12.9 0.00 0.00 0.00 45 1023.7
20260903164504 26 230 6.4 12.9 0.00 0.00 0.00 45 1023.7
20260903164004 26 233 6.4 11.3 0.00 0.00 0.00 44 1023.6
20260903163504 26 229 6.4 11.3 0.00 0.00 0.00 44 1023.5
20260903163004 26 231 8.0 17.7 0.00 0.00 0.00 45 1023.5
20260903162504 27 232 11.3 17.7 0.00 0.00 0.00 43 1023.5
20260903162004 27 237 9.7 17.7 0.00 0.00 0.00 42 1023.6
20260903161505 27 232 6.4 17.7 0.00 0.00 0.00 42 1023.6
20260903161005 27 224 8.0 19.3 0.00 0.00 0.00 43 1023.6
20260903160005 27 212 8.0 12.9 0.00 0.00 0.00 42 1023.9
20260903155504 26 218 8.0 12.9 0.00 0.00 0.00 42 1023.7
20260903155004 27 220 9.7 16.1 0.00 0.00 0.00 42 1023.7
20260903154504 27 222 9.7 16.1 0.00 0.00 0.00 42 1023.8
20260903154004 27 233 8.0 14.5 0.00 0.00 0.00 42 1023.8
20260903153504 27 241 8.0 14.5 0.00 0.00 0.00 42 1023.8
20260903153005 27 240 8.0 16.1 0.00 0.00 0.00 42 1023.8
20260903152506 27 239 8.0 16.1 0.00 0.00 0.00 41 1023.9
20260903152005 27 229 6.4 12.9 0.00 0.00 0.00 40 1023.9
20260903151504 27 226 8.0 12.9 0.00 0.00 0.00 40 1023.8
20260903151004 27 235 8.0 16.1 0.00 0.00 0.00 39 1023.9
20260903150504 27 237 8.0 16.1 0.00 0.00 0.00 40 1024.0
20260903150005 27 237 6.4 16.1 0.00 0.00 0.00 40 1024.0
20260903145006 27 242 9.7 17.7 0.00 0.00 0.00 40 1023.8
20260903144004 27 240 8.0 11.3 0.00 0.00 0.00 39 1024.0
20260903143505 27 248 8.0 17.7 0.00 0.00 0.00 39 1023.9
20260903143005 27 263 9.7 19.3 0.00 0.00 0.00 38 1024.2
20260903142005 27 273 9.7 24.1 0.00 0.00 0.00 36 1024.1
20260903141004 27 269 9.7 20.9 0.00 0.00 0.00 37 1024.2
20260903140505 27 265 8.0 20.9 0.00 0.00 0.00 36 1024.2
20260903140005 27 262 11.3 22.5 0.00 0.00 0.00 36 1024.2
20260903135505 27 260 14.5 22.5 0.00 0.00 0.00 36 1024.2
20260903133004 26 238 9.7 17.7 0.00 0.00 0.00 37 1024.2
20260903132506 26 234 8.0 17.7 0.00 0.00 0.00 37 1024.2
20260903132004 26 232 9.7 19.3 0.00 0.00 0.00 37 1024.1
20260903131504 26 230 11.3 27.4 0.00 0.00 0.00 37 1024.3
20260903131004 26 232 12.9 27.4 0.00 0.00 0.00 37 1024.1
20260903130504 26 211 12.9 22.5 0.00 0.00 0.00 37 1024.1
20260903130005 26 208 9.7 22.5 0.00 0.00 0.00 38 1024.1
20260903125505 26 205 8.0 19.3 0.00 0.00 0.00 39 1024.1
20260903125004 26 208 11.3 20.9 0.00 0.00 0.00 40 1024.1
20260903124504 26 211 14.5 20.9 0.00 0.00 0.00 39 1024.1
20260903124004 26 212 14.5 20.9 0.00 0.00 0.00 39 1024.2
20260903123505 26 236 9.7 20.9 0.00 0.00 0.00 39 1024.1
20260903123006 26 241 9.7 20.9 0.00 0.00 0.00 40 1024.2
20260903122504 26 239 9.7 20.9 0.00 0.00 0.00 39 1024.3
20260903122005 26 242 8.0 16.1 0.00 0.00 0.00 39 1024.4
20260903121504 26 243 9.7 16.1 0.00 0.00 0.00 39 1024.2
20260903121004 26 244 8.0 16.1 0.00 0.00 0.00 40 1024.3
20260903120004 26 240 6.4 12.9 0.00 0.00 0.00 40 1024.6
20260903115504 26 240 6.4 12.9 0.00 0.00 0.00 41 1024.8
20260903115005 25 235 8.0 20.9 0.00 0.00 0.00 40 1024.6
20260903114505 25 231 9.7 20.9 0.00 0.00 0.00 40 1024.4
20260903114005 25 221 9.7 20.9 0.00 0.00 0.00 40 1024.7
20260903113004 25 223 8.0 16.1 0.00 0.00 0.00 40 1024.7
20260903112505 25 235 8.0 16.1 0.00 0.00 0.00 40 1024.9
20260903112004 25 249 4.8 12.9 0.00 0.00 0.00 42 1024.9
20260903111005 25 263 8.0 14.5 0.00 0.00 0.00 41 1025.0
20260903110504 25 269 9.7 12.9 0.00 0.00 0.00 41 1024.8
20260903110004 25 261 11.3 17.7 0.00 0.00 0.00 41 1025.2
20260903105005 25 248 8.0 20.9 0.00 0.00 0.00 42 1025.1
20260903104505 25 244 9.7 20.9 0.00 0.00 0.00 43 1025.4
20260903104005 24 238 8.0 19.3 0.00 0.00 0.00 45 1025.0
20260903103505 24 229 6.4 19.3 0.00 0.00 0.00 45 1025.2
20260903103004 24 233 6.4 19.3 0.00 0.00 0.00 46 1025.1
20260903102504 24 250 6.4 17.7 0.00 0.00 0.00 46 1025.1
20260903102004 24 249 8.0 17.7 0.00 0.00 0.00 46 1025.2
20260903101004 23 247 6.4 12.9 0.00 0.00 0.00 46 1025.1
20260903100504 23 256 8.0 14.5 0.00 0.00 0.00 45 1025.3
20260903100005 23 268 6.4 14.5 0.00 0.00 0.00 45 1025.2
20260903095505 23 264 6.4 14.5 0.00 0.00 0.00 46 1025.4
20260903095004 23 266 8.0 16.1 0.00 0.00 0.00 45 1025.2
20260903094504 23 265 9.7 16.1 0.00 0.00 0.00 46 1025.2
20260903094004 23 270 8.0 12.9 0.00 0.00 0.00 46 1025.3
20260903093506 23 262 9.7 17.7 0.00 0.00 0.00 46 1025.2
20260903093005 23 251 6.4 17.7 0.00 0.00 0.00 45 1025.3
20260903092504 23 249 6.4 14.5 0.00 0.00 0.00 46 1025.2
20260903092004 23 250 8.0 16.1 0.00 0.00 0.00 47 1025.6
20260903091504 23 254 8.0 16.1 0.00 0.00 0.00 46 1025.5
20260903091004 23 247 9.7 20.9 0.00 0.00 0.00 46 1025.5
20260903090505 22 243 9.7 20.9 0.00 0.00 0.00 48 1025.1
20260903085004 22 248 6.4 14.5 0.00 0.00 0.00 47 1025.0
20260903083504 22 258 6.4 14.5 0.00 0.00 0.00 54 1025.2
20260903083004 22 256 6.4 14.5 0.00 0.00 0.00 54 1024.8
20260903082505 22 258 3.2 6.4 0.00 0.00 0.00 54 1024.9
20260903082004 22 264 4.8 11.3 0.00 0.00 0.00 54 1024.8
20260903081504 21 264 6.4 12.9 0.00 0.00 0.00 55 1024.8
20260903081004 21 259 8.0 12.9 0.00 0.00 0.00 55 1024.9
20260903080504 21 257 6.4 12.9 0.00 0.00 0.00 55 1025.0
20260903080005 21 256 6.4 12.9 0.00 0.00 0.00 57 1025.1
20260903075005 21 208 4.8 11.3 0.00 0.00 0.00 61 1024.9
20260903074504 20 151 1.6 8.0 0.00 0.00 0.00 62 1025.0
20260903074005 20 106 1.6 3.2 0.00 0.00 0.00 64 1024.6
20260903073506 20 87 1.6 3.2 0.00 0.00 0.00 64 1024.6
20260903073004 19 83 1.6 3.2 0.00 0.00 0.00 65 1024.5
20260903072504 19 78 1.6 3.2 0.00 0.00 0.00 65 1024.3
20260903072006 18 75 1.6 3.2 0.00 0.00 0.00 66 1024.4
20260903071504 18 69 3.2 4.8 0.00 0.00 0.00 68 1024.4
20260903071004 18 63 3.2 4.8 0.00 0.00 0.00 69 1024.4
20260903070504 18 56 3.2 4.8 0.00 0.00 0.00 69 1024.3
20260903070005 17 55 3.2 4.8 0.00 0.00 0.00 69 1024.2
20260903065505 17 53 3.2 6.4 0.00 0.00 0.00 69 1024.4
20260903065004 17 46 3.2 6.4 0.00 0.00 0.00 73 1024.6
20260903064005 16 53 3.2 6.4 0.00 0.00 0.00 73 1024.7
20260903063505 16 62 4.8 6.4 0.00 0.00 0.00 73 1024.6
20260903063004 16 71 3.2 6.4 0.00 0.00 0.00 73 1024.5
20260903062504 16 79 3.2 4.8 0.00 0.00 0.00 73 1024.6
20260903062004 16 90 3.2 4.8 0.00 0.00 0.00 73 1024.7
20260903061504 16 98 3.2 4.8 0.00 0.00 0.00 73 1024.8
20260903061004 16 102 3.2 4.8 0.00 0.00 0.00 74 1024.7
20260903060504 15 103 3.2 4.8 0.00 0.00 0.00 75 1024.8
20260903055506 15 95 3.2 3.2 0.00 0.00 0.00 75 1024.8
20260903054504 15 87 3.2 3.2 0.00 0.00 0.00 75 1024.6
20260903054004 15 87 1.6 4.8 0.00 0.00 0.00 75 1024.6
20260903053504 14 85 3.2 4.8 0.00 0.00 0.00 75 1024.3
20260903053004 14 81 3.2 6.4 0.00 0.00 0.00 76 1024.4
20260903052504 14 75 3.2 6.4 0.00 0.00 0.00 76 1024.6
20260903052006 14 75 1.6 4.8 0.00 0.00 0.00 75 1024.4
20260903051504 14 77 3.2 4.8 0.00 0.00 0.00 76 1024.3
20260903050506 14 67 3.2 6.4 0.00 0.00 0.00 76 1024.3
20260903050004 14 68 3.2 6.4 0.00 0.00 0.00 76 1024.2
20260903045504 14 67 3.2 4.8 0.00 0.00 0.00 76 1024.0
20260903045005 14 66 3.2 4.8 0.00 0.00 0.00 76 1024.1
20260903044504 14 68 3.2 3.2 0.00 0.00 0.00 75 1024.1
20260903044004 14 77 3.2 4.8 0.00 0.00 0.00 75 1024.0
20260903043504 14 84 3.2 4.8 0.00 0.00 0.00 75 1024.0
20260903042005 15 87 3.2 4.8 0.00 0.00 0.00 75 1024.2
20260903041504 15 80 3.2 6.4 0.00 0.00 0.00 75 1024.2
20260903041005 15 75 4.8 6.4 0.00 0.00 0.00 75 1024.0
20260903040504 15 74 3.2 6.4 0.00 0.00 0.00 74 1024.0
20260903040004 15 76 4.8 6.4 0.00 0.00 0.00 74 1024.0
20260903035505 15 78 4.8 6.4 0.00 0.00 0.00 74 1023.8
20260903035004 15 72 3.2 6.4 0.00 0.00 0.00 74 1023.9
20260903034504 15 77 3.2 4.8 0.00 0.00 0.00 73 1023.9
20260903034006 15 84 1.6 3.2 0.00 0.00 0.00 73 1024.0
20260903033504 15 82 1.6 4.8 0.00 0.00 0.00 73 1023.9
20260903033004 15 78 3.2 6.4 0.00 0.00 0.00 73 1023.9
20260903032504 15 81 3.2 6.4 0.00 0.00 0.00 72 1023.9
20260903031504 16 90 3.2 4.8 0.00 0.00 0.00 72 1024.1
20260903031005 16 77 1.6 3.2 0.00 0.00 0.00 72 1024.0
20260903030505 16 62 1.6 3.2 0.00 0.00 0.00 72 1024.1
20260903030004 16 57 1.6 3.2 0.00 0.00 0.00 72 1024.1
20260903025504 16 49 1.6 3.2 0.00 0.00 0.00 72 1024.1
20260903025004 16 42 1.6 9.7 0.00 0.00 0.00 72 1024.0
20260903024504 16 36 3.2 9.7 0.00 0.00 0.00 72 1024.1
20260903024005 16 36 3.2 9.7 0.00 0.00 0.00 72 1023.9
20260903023504 16 31 4.8 9.7 0.00 0.00 0.00 72 1023.9
20260903023004 16 30 4.8 8.0 0.00 0.00 0.00 72 1024.0
20260903022504 16 29 4.8 8.0 0.00 0.00 0.00 72 1023.9
20260903022005 16 29 4.8 8.0 0.00 0.00 0.00 72 1024.1
20260903021504 16 31 4.8 9.7 0.00 0.00 0.00 72 1024.1
20260903021004 16 28 4.8 9.7 0.00 0.00 0.00 72 1024.1
20260903020505 16 31 4.8 8.0 0.00 0.00 0.00 72 1024.2
20260903015504 16 37 4.8 9.7 0.00 0.00 0.00 72 1024.0
20260903014504 16 38 4.8 8.0 0.00 0.00 0.00 72 1024.2
20260903014004 16 40 4.8 6.4 0.00 0.00 0.00 72 1024.4